Location: Ago
(8.4667°N, 4.4833°E)
Time: 23:59:04
(UTC+00:00)

Okean-O - Pass Details

Date: 18 September 2020
Orbit: 639 x 641 km, 98.2° (Epoch: 20 October)

Event Time Altitude Azimuth Distance (km) Brightness Sun altitude
Rises 17:56:22 0° 147° (SSE) 2,936 5.7 -4.8°
Reaches altitude 10° 17:58:49 10° 135° (SE) 2,026 4.8 -5.4°
Maximum altitude 18:02:35 28° 77° (ENE) 1,203 3.5 -6.4°
Drops below altitude 10° 18:06:21 10° 18° (NNE) 2,025 5.1 -7.3°
Sets 18:08:47 0° 6° (N) 2,932 6.0 -7.9°
